Zurück zum Katalog

SL-24 DEB

AktivPO
NORAD 36510·DEBRIS·🇷🇺 Russia

Gestartet Apr 8, 2010 von Baikonur Cosmodrome

Loading…

Nächste Überflüge (nächste 24 Stunden)

TLE

AktuellSource: Space-Track

Epoche: Sep 14, 2026, 14:45 UTC

1 36510U 10013C   26257.61463816  .00001499  00000-0  21783-3 0  9994
2 36510  92.0273 327.7428 0021403  65.7635 294.5818 14.75747272877684

Verfolge SL-24 DEB in Echtzeit mit AllMySat

Download on the App Store